Hourly Data Report for October 02, 2017

All times are specified in Local Standard Time (LST). Add 1 hour to adjust for Daylight Saving Time where and when it is observed.

CHURCHILL
MANITOBA

58°44'21.000" N
94°03'59.000" W
29.30 m
5060595
71618
YYQ

Related Data

No related data is available for this station

Download Data

Hourly Data (October 2017)
Hourly Data Report for October 2, 2017
Temp Definition
°C
Dew Point Temp Definition
°C
Rel Hum Definition
%
Wind Dir Definition
10's deg

Wind Spd Definition
km/h
Visibility Definition
km
Stn Press Definition
kPa
Hmdx Definition


Wind Chill Definition


Weather Definition


TIME
00:00 Legend Double Dagger 7.6 5.4 86 14 28 16.1 100.68     LegendNANA
01:00 Legend Double Dagger 7.7 5.5 86 14 24 16.1 100.63     LegendNANA
02:00 Legend Double Dagger 7.9 5.7 86 13 22 16.1 100.57     LegendNANA
03:00 Legend Double Dagger 8.0 6.0 87 13 18 16.1 100.50     LegendNANA
04:00 Legend Double Dagger 8.1 6.6 90 14 18 16.1 100.44     LegendNANA
05:00 Legend Double Dagger 8.1 7.0 93 14 15 16.1 100.37     Rain
06:00 Legend Double Dagger 8.3 7.6 95 15 13 16.1 100.32     LegendNANA
07:00 Legend Double Dagger 8.3 7.9 97 14 9 11.3 100.28     Rain
08:00 Legend Double Dagger 8.3 8.0 98 12 5 6.4 100.27     Rain,Fog
09:00 Legend Double Dagger 8.6 8.3 98 34 4 2.4 100.23     Rain,Fog
10:00 Legend Double Dagger 8.2 7.9 98 36 11 1.0 100.20     Rain,Fog
11:00 Legend Double Dagger 8.1 8.0 99 35 11 1.2 100.19     Rain,Fog
12:00 Legend Double Dagger 7.9 7.8 99 35 22 9.7 100.18     Rain,Fog
13:00 Legend Double Dagger 7.3 7.1 98 35 35 11.3 100.20     Rain
14:00 Legend Double Dagger 6.6 6.3 98 36 39 8.1 100.28     Moderate Rain,Fog
15:00 Legend Double Dagger 5.8 5.4 97 36 43 4.8 100.37     Rain,Fog
16:00 Legend Double Dagger 4.9 4.0 94 36 50 16.1 100.49     LegendNANA
17:00 Legend Double Dagger 4.2 3.4 94 36 48 6.4 100.62     Rain,Fog
18:00 Legend Double Dagger 3.7 2.4 91 36 50 16.1 100.75     Rain
19:00 Legend Double Dagger 3.6 1.5 86 36 50 16.1 100.81     LegendNANA
20:00 Legend Double Dagger 3.8 0.5 79 36 48 16.1 100.93     LegendNANA
21:00 Legend Double Dagger 3.8 0.3 78 36 45 16.1 100.97     LegendNANA
22:00 Legend Double Dagger 3.6 -0.1 77 36 43 16.1 101.01     LegendNANA
23:00 Legend Double Dagger 3.7 -0.4 75 1 37 16.1 101.06     LegendNANA

Notes on Data Quality.

Legend

  • E = Estimated
  • M = Missing
  • NA = Not Available
  • ‡ = Partner data that is not subject to review by the National Climate Archives
Date modified: